OPS 4682 DEB, 38405

Orbit data source: Space-Track

OPS 4682 DEB, 38405 is space debris in LEO originally from a launch on Sat, 03 Apr 1965 UTC launched from the Air Force Western Test Range (AFWTR). Debris objects in space refer to the collection of defunct objects orbiting the Earth. Examples of debris include non-operational satellites, rocket bodies, and fragments generated from explosions, collisions, or faulty payload assembly.

Loading next visibility...
Identifier
38405, 1965-027DJ
Orbit
LEO
Country
Flag of USUS
Related business
Manufacturer
Unknown
Mission
Spacecraft
Bus & Motor
Unknown
Mass
Unknown
Launch date (UTC)
1965-04-03 (61 years ago)
Launch vehicle
Unknown
Launch site
Air Force Western Test Range (AFWTR)
Object type
Payload
Rocket body
Debris
Shape & HBR
Unknown shape, 0.1 m
Radar Cross Section
Small (<0.1 m²)

Expand to show TLE details & history
Last TLE update: 8 hours ago

TLE from 8 hours ago
0 OPS 4682 DEB
1 38405U 65027DJ  26119.48981585  .00001951  00000-0  64868-2 0  9997
2 38405  90.2709  21.0288 0014956 280.2737  79.6698 12.99695162658738
Epoch: 2026-04-29T11:45Z
TLE epoch observation values (Epoch: 2026-04-29T11:45:20.089Z)
Latitude
-0.00007°
Longitude
-12.75494°
Altitude
1,264.131 km
Speed
7.224 km/s
True Right ascension
01h 24m 06s
True Declination
0° 00' 00"
Sunlit
Object was in daylight at epoch
Visualization orbit readout
Latitude
Unknown
Longitude
Unknown
Altitude
Unknown
Speed
Unknown
Apparent Right ascension
Unknown
Apparent Declination
Unknown
Sunlit
N/A
Visualization observer readout
Local Sidereal Time
03:42:59
Azimuth
Unknown
Elevation
Unknown
Doppler factor
Unknown
Orbital elements
Apogee altitude
1,271.833 km
Perigee altitude
1,248.985 km
Semi-major axis
7,638.546 km
Eccentricity
0.0015
Inclination
90.2709°
RAAN
21.0288°
Arg. of periapsis
280.2737°
True anomaly
79.83846°
Mean anomaly
79.6698°
Eccentric anomaly
79.75413°
Mean motion
3.25108 °/min
Orbital period
110.73 mins
BSTAR
0.0064868
Loading maneuver chart data...
Computing Atmospheric mass density...
Loading historical data...
Loading historical data...
Loading historical data...
Loading historical data...
Loading historical data...
Loading historical data...
Loading historical data...

Documentation

Showing up to 5 results
|